| time (UTC) | temp F | wind direction | speed MPH | gust MPH | rain 1hr in | rain 24hr in | rain mn in | humidity % | barometer mb |
| 20260504044557 | 50 | 186 | 0.0 | 1.0 | 0.00 | 0.00 | 0.00 | 62 | 1010.7 |
| 20260504043044 | 51 | 232 | 0.0 | 6.0 | 0.00 | 0.00 | 0.00 | 61 | 1010.7 |
| 20260504041541 | 51 | 215 | 1.0 | 4.0 | 0.00 | 0.00 | 0.00 | 60 | 1010.7 |
| 20260504040039 | 51 | 188 | 0.0 | 6.0 | 0.00 | 0.00 | 0.00 | 59 | 1010.8 |
| 20260504034545 | 52 | 261 | 1.0 | 5.0 | 0.00 | 0.00 | 0.00 | 59 | 1010.7 |
| 20260504033050 | 52 | 162 | 0.0 | 4.0 | 0.00 | 0.00 | 0.00 | 58 | 1010.7 |
| 20260504031538 | 53 | 234 | 2.0 | 10.0 | 0.00 | 0.00 | 0.00 | 58 | 1010.7 |
| 20260504030037 | 53 | 254 | 1.0 | 8.0 | 0.00 | 0.00 | 0.00 | 58 | 1010.8 |
| 20260504024535 | 52 | 99 | 1.0 | 3.0 | 0.00 | 0.00 | 0.00 | 60 | 1010.8 |
| 20260504023035 | 52 | 252 | 0.0 | 4.0 | 0.00 | 0.00 | 0.00 | 60 | 1010.8 |
| 20260504021536 | 52 | 136 | 0.0 | 10.0 | 0.00 | 0.00 | 0.00 | 60 | 1011.1 |
| 20260504020035 | 52 | 263 | 0.0 | 7.0 | 0.00 | 0.00 | 0.00 | 61 | 1011.1 |
| 20260504014532 | 52 | 186 | 0.0 | 4.0 | 0.00 | 0.00 | 0.00 | 61 | 1011.1 |
| 20260504013037 | 51 | 171 | 0.0 | 5.0 | 0.00 | 0.00 | 0.00 | 65 | 1011.1 |
| 20260504011531 | 51 | 199 | 0.0 | 4.0 | 0.00 | 0.00 | 0.00 | 70 | 1011.1 |
| 20260504010039 | 50 | 88 | 0.0 | 1.0 | 0.00 | 0.00 | 0.00 | 71 | 1011.3 |
| 20260504004530 | 50 | 348 | 0.0 | 2.0 | 0.00 | 0.00 | 0.00 | 72 | 1011.4 |
| 20260504003029 | 50 | 244 | 0.0 | 2.0 | 0.00 | 0.00 | 0.00 | 74 | 1011.4 |
| 20260504001528 | 50 | 142 | 1.0 | 3.0 | 0.00 | 0.00 | 0.00 | 76 | 1011.7 |
| 20260504000028 | 50 | 309 | 0.0 | 4.0 | 0.00 | 0.00 | 0.00 | 76 | 1011.8 |
| 20260503234527 | 50 | 271 | 1.0 | 5.0 | 0.00 | 0.00 | 0.00 | 75 | 1011.7 |
| 20260503233026 | 50 | 282 | 2.0 | 9.0 | 0.00 | 0.00 | 0.00 | 74 | 1011.6 |
| 20260503231625 | 51 | 263 | 3.0 | 15.0 | 0.00 | 0.00 | 0.00 | 70 | 1011.6 |
| 20260503230023 | 53 | 254 | 5.0 | 14.0 | 0.00 | 0.00 | 0.00 | 62 | 1011.6 |
| 20260503224522 | 53 | 80 | 2.0 | 10.0 | 0.00 | 0.00 | 0.00 | 60 | 1011.3 |
| 20260503223023 | 53 | 237 | 2.0 | 7.0 | 0.00 | 0.00 | 0.00 | 60 | 1011.1 |
| 20260503221530 | 53 | 235 | 2.0 | 8.0 | 0.00 | 0.00 | 0.00 | 57 | 1011.1 |
| 20260503220022 | 54 | 244 | 1.0 | 9.0 | 0.00 | 0.00 | 0.00 | 56 | 1011.2 |
| 20260503214522 | 55 | 232 | 2.0 | 8.0 | 0.00 | 0.00 | 0.00 | 53 | 1011.0 |
| 20260503213028 | 55 | 69 | 3.0 | 12.0 | 0.00 | 0.00 | 0.00 | 53 | 1011.2 |
| 20260503211520 | 54 | 155 | 1.0 | 7.0 | 0.00 | 0.00 | 0.00 | 55 | 1011.2 |
| 20260503210018 | 55 | 288 | 2.0 | 9.0 | 0.00 | 0.00 | 0.00 | 52 | 1011.4 |
| 20260503204523 | 55 | 160 | 1.0 | 6.0 | 0.00 | 0.00 | 0.00 | 53 | 1011.3 |
| 20260503203016 | 57 | 256 | 1.0 | 8.0 | 0.00 | 0.00 | 0.00 | 51 | 1011.4 |
| 20260503201525 | 57 | 255 | 2.0 | 10.0 | 0.00 | 0.00 | 0.00 | 51 | 1011.5 |
| 20260503200012 | 58 | 300 | 2.0 | 8.0 | 0.00 | 0.00 | 0.00 | 47 | 1011.7 |
| 20260503194511 | 57 | 277 | 3.0 | 11.0 | 0.00 | 0.00 | 0.00 | 46 | 1011.9 |
| 20260503193010 | 58 | 288 | 4.0 | 13.0 | 0.00 | 0.00 | 0.00 | 46 | 1012.3 |
| 20260503191506 | 56 | 167 | 4.0 | 13.0 | 0.00 | 0.00 | 0.00 | 43 | 1012.6 |
| 20260503190016 | 57 | 310 | 2.0 | 6.0 | 0.00 | 0.00 | 0.00 | 46 | 1012.8 |
| 20260503184600 | 56 | 212 | 3.0 | 9.0 | 0.00 | 0.00 | 0.00 | 48 | 1013.1 |
| 20260503183104 | 54 | 160 | 3.0 | 10.0 | 0.00 | 0.00 | 0.00 | 48 | 1013.5 |
| 20260503181621 | 55 | 292 | 5.0 | 14.0 | 0.00 | 0.00 | 0.00 | 44 | 1013.6 |
| 20260503180124 | 54 | 139 | 2.0 | 7.0 | 0.00 | 0.00 | 0.00 | 49 | 1013.8 |
| 20260503174557 | 53 | 324 | 3.0 | 15.0 | 0.00 | 0.00 | 0.00 | 46 | 1013.9 |
| 20260503173058 | 55 | 76 | 3.0 | 11.0 | 0.00 | 0.00 | 0.00 | 52 | 1014.0 |
| 20260503171550 | 56 | 170 | 2.0 | 8.0 | 0.00 | 0.00 | 0.00 | 54 | 1014.0 |
| 20260503081539 | 35 | 290 | 0.0 | 2.0 | 0.00 | 0.00 | 0.00 | 90 | 1016.0 |
| 20260503071534 | 36 | 294 | 0.0 | 3.0 | 0.00 | 0.00 | 0.00 | 87 | 1016.0 |
| 20260503054521 | 37 | 9 | 0.0 | 2.0 | 0.00 | 0.00 | 0.00 | 82 | 1016.2 |
| 20260503053015 | 38 | 269 | 0.0 | 0.0 | 0.00 | 0.00 | 0.00 | 81 | 1016.3 |
| 20260503051510 | 39 | 291 | 0.0 | 2.0 | 0.00 | 0.00 | 0.00 | 82 | 1016.5 |
| 20260503050009 | 39 | 277 | 0.0 | 3.0 | 0.00 | 0.00 | 0.00 | 81 | 1016.6 |